Location: Ellerstadt
(49.4644°N, 8.2615°E)
Time: 02:27:28
(UTC+00:00)

ISS - Pass Details

Date: 16 May 2021
Orbit: 417 x 422 km, 51.6° (Epoch: 15 June)

Event Time Altitude Azimuth Distance (km) Brightness Sun altitude
Rises 22:26:33 0° 270° (W) 2,366 0.2 -20.1°
Reaches altitude 10° 22:28:40 10° 274° (W) 1,504 -0.7 -20.2°
Maximum altitude 22:32:00 59° 355° (N) 494 -3.2 -20.3°
Drops below altitude 10° 22:35:21 10° 76° (ENE) 1,508 -0.9 -20.4°
Sets 22:37:29 0° 80° (E) 2,374 0.1 -20.5°
